When you browse on this site, cookies collect data to enhance your experience and personalize the content and advertising you see.
Visit our Privacy Policy to learn more. By continuing to use the site, you agree to this use of cookies and data.
  • In Schweiz
  • Länderverzeichnis
  • Für 7 Tage
  • Wassertemperatur
  • Wetterkarte
  • Widgets
  • user-avatar
    Anmelden

    Stündliche Wetter Melilla

    Heute, 23 September, Montag

    Zeit Temperatur Niederschläge Wind Luftdruck Luftfeuchtigkeit
    00:00 +26°C° 0 mm 2 m/S 763 mmHg 64%
    01:00 +25°C° 0 mm 3 m/S 763 mmHg 65%
    02:00 +25°C° 0 mm 3 m/S 762 mmHg 66%
    03:00 +25°C° 0 mm 4 m/S 762 mmHg 67%
    04:00 +23°C° 0 mm 4 m/S 762 mmHg 69%
    05:00 +24°C° 0 mm 3 m/S 763 mmHg 71%
    06:00 +24°C° 0 mm 3 m/S 763 mmHg 72%
    07:00 +25°C° 0 mm 3 m/S 763 mmHg 67%
    08:00 +25°C° 0 mm 3 m/S 764 mmHg 63%
    09:00 +26°C° 0 mm 2 m/S 764 mmHg 58%
    10:00 +27°C° 0 mm 2 m/S 764 mmHg 55%
    11:00 +28°C° 0 mm 3 m/S 764 mmHg 53%
    12:00 +29°C° 0 mm 3 m/S 763 mmHg 50%
    13:00 +29°C° 0 mm 3 m/S 763 mmHg 50%
    14:00 +29°C° 0 mm 3 m/S 763 mmHg 50%
    15:00 +29°C° 0 mm 3 m/S 763 mmHg 49%
    16:00 +28°C° 0 mm 3 m/S 763 mmHg 53%
    17:00 +27°C° 0 mm 2 m/S 763 mmHg 56%
    18:00 +26°C° 0 mm 1 m/S 763 mmHg 59%
    19:00 +26°C° 0 mm 1 m/S 763 mmHg 60%
    20:00 +26°C° 0 mm 1 m/S 764 mmHg 61%
    21:00 +26°C° 0 mm 1 m/S 765 mmHg 62%
    22:00 +26°C° 0 mm 1 m/S 764 mmHg 62%
    23:00 +26°C° 0 mm 1 m/S 764 mmHg 62%

    Morgen, 24 September, Dienstag

    Zeit Temperatur Niederschläge Wind Luftdruck Luftfeuchtigkeit
    00:00 +24°C° 0 mm 0 m/S 764 mmHg 62%
    01:00 +25°C° 0 mm 1 m/S 764 mmHg 63%
    02:00 +25°C° 0 mm 1 m/S 764 mmHg 64%
    03:00 +25°C° 0 mm 1 m/S 764 mmHg 64%
    04:00 +24°C° 0 mm 1 m/S 763 mmHg 65%
    05:00 +22°C° 0 mm 0 m/S 763 mmHg 67%
    06:00 +22°C° 0 mm 0 m/S 763 mmHg 68%
    07:00 +23°C° 0 mm 0 m/S 763 mmHg 62%
    08:00 +24°C° 0 mm 0 m/S 764 mmHg 56%
    09:00 +25°C° 0 mm 0 m/S 764 mmHg 51%
    10:00 +28°C° 0 mm 1 m/S 764 mmHg 48%
    11:00 +30°C° 0 mm 1 m/S 764 mmHg 46%
    12:00 +31°C° 0 mm 2 m/S 763 mmHg 43%
    13:00 +30°C° 0 mm 2 m/S 763 mmHg 44%
    14:00 +30°C° 0 mm 2 m/S 763 mmHg 44%
    15:00 +30°C° 0 mm 2 m/S 762 mmHg 45%
    16:00 +30°C° 0 mm 2 m/S 762 mmHg 47%
    17:00 +29°C° 0 mm 2 m/S 762 mmHg 50%
    18:00 +29°C° 0 mm 1 m/S 762 mmHg 52%
    19:00 +28°C° 0 mm 1 m/S 762 mmHg 53%
    20:00 +28°C° 0 mm 1 m/S 762 mmHg 54%
    21:00 +28°C° 0 mm 1 m/S 763 mmHg 55%
    22:00 +28°C° 0 mm 1 m/S 762 mmHg 56%
    23:00 +27°C° 0 mm 1 m/S 762 mmHg 57%

    übermorgen, 25 September, Mittwoch

    Zeit Temperatur Niederschläge Wind Luftdruck Luftfeuchtigkeit
    00:00 +27°C° 0 mm 1 m/S 762 mmHg 58%
    01:00 +27°C° 0 mm 1 m/S 761 mmHg 58%
    02:00 +26°C° 0 mm 1 m/S 761 mmHg 58%
    03:00 +26°C° 0 mm 2 m/S 761 mmHg 58%
    04:00 +26°C° 0 mm 2 m/S 761 mmHg 59%
    05:00 +25°C° 0 mm 2 m/S 761 mmHg 59%
    06:00 +25°C° 0 mm 2 m/S 761 mmHg 60%
    07:00 +27°C° 0 mm 2 m/S 762 mmHg 53%
    08:00 +28°C° 0 mm 2 m/S 762 mmHg 46%
    09:00 +30°C° 0 mm 2 m/S 762 mmHg 38%
    10:00 +31°C° 0 mm 3 m/S 762 mmHg 36%
    11:00 +33°C° 0 mm 3 m/S 762 mmHg 34%
    12:00 +34°C° 0 mm 4 m/S 761 mmHg 31%
    13:00 +33°C° 0 mm 4 m/S 761 mmHg 32%
    14:00 +33°C° 0 mm 4 m/S 761 mmHg 34%
    15:00 +33°C° 0 mm 4 m/S 760 mmHg 35%
    16:00 +32°C° 0 mm 4 m/S 760 mmHg 38%
    17:00 +31°C° 0 mm 3 m/S 761 mmHg 40%
    18:00 +30°C° 0 mm 3 m/S 761 mmHg 43%
    19:00 +29°C° 0 mm 2 m/S 761 mmHg 46%
    20:00 +29°C° 0 mm 2 m/S 761 mmHg 50%
    21:00 +28°C° 0 mm 1 m/S 762 mmHg 53%
    22:00 +28°C° 0 mm 1 m/S 762 mmHg 54%
    23:00 +27°C° 0 mm 1 m/S 762 mmHg 56%

    26 September, Donnerstag

    Zeit Temperatur Niederschläge Wind Luftdruck Luftfeuchtigkeit
    00:00 +27°C° 0 mm 1 m/S 762 mmHg 57%
    01:00 +27°C° 0 mm 1 m/S 762 mmHg 58%
    02:00 +26°C° 0 mm 1 m/S 762 mmHg 60%
    03:00 +26°C° 0 mm 1 m/S 762 mmHg 61%
    04:00 +25°C° 0 mm 1 m/S 762 mmHg 63%
    05:00 +23°C° 0 mm 0 m/S 762 mmHg 65%
    06:00 +22°C° 0 mm 0 m/S 762 mmHg 67%
    07:00 +26°C° 0 mm 1 m/S 762 mmHg 61%
    08:00 +27°C° 0 mm 1 m/S 763 mmHg 56%
    09:00 +28°C° 0 mm 1 m/S 763 mmHg 50%
    10:00 +29°C° 0 mm 2 m/S 763 mmHg 47%
    11:00 +30°C° 0 mm 2 m/S 763 mmHg 44%
    12:00 +31°C° 0 mm 3 m/S 763 mmHg 42%
    13:00 +31°C° 0 mm 3 m/S 763 mmHg 43%
    14:00 +30°C° 0 mm 3 m/S 762 mmHg 45%
    15:00 +30°C° 0 mm 3 m/S 762 mmHg 46%
    16:00 +30°C° 0 mm 3 m/S 762 mmHg 50%
    17:00 +29°C° 0 mm 2 m/S 762 mmHg 53%
    18:00 +28°C° 0 mm 2 m/S 762 mmHg 57%
    19:00 +27°C° 0 mm 2 m/S 763 mmHg 59%
    20:00 +27°C° 0 mm 1 m/S 763 mmHg 62%
    21:00 +26°C° 0 mm 1 m/S 764 mmHg 65%
    22:00 +26°C° 0 mm 1 m/S 763 mmHg 67%
    23:00 +26°C° 0 mm 1 m/S 763 mmHg 68%

    27 September, Freitag

    Zeit Temperatur Niederschläge Wind Luftdruck Luftfeuchtigkeit
    00:00 +25°C° 0 mm 1 m/S 763 mmHg 70%
    01:00 +25°C° 0 mm 1 m/S 763 mmHg 72%
    02:00 +25°C° 0 mm 1 m/S 763 mmHg 74%
    03:00 +24°C° 0 mm 1 m/S 763 mmHg 76%
    04:00 +24°C° 0 mm 1 m/S 763 mmHg 78%
    05:00 +24°C° 0 mm 1 m/S 763 mmHg 80%
    06:00 +23°C° 0 mm 1 m/S 763 mmHg 81%
    07:00 +24°C° 0 mm 1 m/S 763 mmHg 75%
    08:00 +25°C° 0 mm 1 m/S 763 mmHg 69%
    09:00 +26°C° 0 mm 1 m/S 764 mmHg 64%
    10:00 +28°C° 0 mm 2 m/S 763 mmHg 60%
    11:00 +29°C° 0 mm 2 m/S 763 mmHg 56%
    12:00 +30°C° 0 mm 2 m/S 763 mmHg 52%
    13:00 +30°C° 0 mm 3 m/S 763 mmHg 53%
    14:00 +29°C° 0 mm 3 m/S 762 mmHg 55%
    15:00 +29°C° 0 mm 3 m/S 762 mmHg 56%
    16:00 +28°C° 0 mm 2 m/S 762 mmHg 60%
    17:00 +28°C° 0 mm 2 m/S 762 mmHg 65%
    18:00 +27°C° 0 mm 1 m/S 762 mmHg 69%
    19:00 +26°C° 0 mm 1 m/S 762 mmHg 72%
    20:00 +26°C° 0 mm 1 m/S 763 mmHg 74%
    21:00 +26°C° 0 mm 1 m/S 763 mmHg 77%
    22:00 +25°C° 0 mm 1 m/S 763 mmHg 77%
    23:00 +25°C° 0 mm 1 m/S 763 mmHg 78%

    28 September, Samstag

    Zeit Temperatur Niederschläge Wind Luftdruck Luftfeuchtigkeit
    00:00 +25°C° 0 mm 1 m/S 763 mmHg 78%
    01:00 +25°C° 0 mm 1 m/S 763 mmHg 79%
    02:00 +24°C° 0 mm 2 m/S 763 mmHg 81%
    03:00 +24°C° 0 mm 2 m/S 762 mmHg 82%
    04:00 +24°C° 0 mm 2 m/S 762 mmHg 85%
    05:00 +24°C° 0 mm 2 m/S 762 mmHg 87%
    06:00 +23°C° 0 mm 2 m/S 762 mmHg 90%
    07:00 +24°C° 0 mm 2 m/S 762 mmHg 84%
    08:00 +25°C° 0 mm 2 m/S 763 mmHg 78%
    09:00 +26°C° 0 mm 2 m/S 763 mmHg 72%
    10:00 +27°C° 0 mm 2 m/S 763 mmHg 68%
    11:00 +28°C° 0 mm 3 m/S 763 mmHg 64%
    12:00 +29°C° 0 mm 3 m/S 763 mmHg 59%
    13:00 +29°C° 0 mm 3 m/S 762 mmHg 61%
    14:00 +29°C° 0 mm 4 m/S 762 mmHg 63%
    15:00 +29°C° 0 mm 4 m/S 761 mmHg 64%
    16:00 +28°C° 0 mm 3 m/S 761 mmHg 67%
    17:00 +27°C° 0 mm 3 m/S 761 mmHg 70%
    18:00 +26°C° 0 mm 2 m/S 761 mmHg 73%
    19:00 +26°C° 0 mm 2 m/S 762 mmHg 75%
    20:00 +26°C° 0 mm 1 m/S 762 mmHg 77%
    21:00 +23°C° 0 mm 0 m/S 763 mmHg 79%
    22:00 +25°C° 0 mm 1 m/S 762 mmHg 80%
    23:00 +25°C° 0 mm 1 m/S 762 mmHg 80%
    Mehr zeigen